Regional Weather Roundup
Issued by NWS Cleveland, OH

Home | Current Version | Previous Version | Graphics & Text | Print | Product List | Glossary On
Versions: 1 2 3 4 5 6 7 8 9 10 11 12 13 14 15 16 17 18 19 20 21 22 23 24 25 26 27 28 29 30 31 32 33 34 35 36 37 38 39 40 41 42 43 44 45 46 47 48 49 50
697
ASUS41 KCLE 260610
RWRCLE
OHIO REGIONAL WEATHER ROUNDUP
NATIONAL WEATHER SERVICE CLEVELAND, OH
200 AM EDT MON JUN 26 2017

NOTE: "FAIR" INDICATES FEW OR NO CLOUDS BELOW 12,000 FEET WITH NO
SIGNIFICANT WEATHER AND/OR OBSTRUCTIONS TO VISIBILITY.

OHZ001>008-015>018-024>027-034-035-043-044-260700-
   NORTHWEST OHIO

CITY           SKY/WX    TMP DP  RH WIND       PRES   REMARKS
DEFIANCE       CLOUDY    61  48  62 W6        30.07S
FINDLAY        PTCLDY    58  46  64 SW5       30.06F
TOLEDO EXPRESS PTCLDY    53  49  86 CALM      30.05F
TOLEDO EXEC    CLEAR     60  51  72 SW3       30.06S
LIMA           CLEAR     57  49  74 W6        30.09S
$$

OHZ009>014-019>023-028>033-038-089-260700-
   NORTHEAST OHIO

CITY           SKY/WX    TMP DP  RH WIND       PRES   REMARKS
CLE-HOPKINS    PTCLDY    59  48  67 SW6       30.07S
CLE-LAKEFRONT  LGT RAIN  62  47  57 SW12      30.04S
CUY CO. ARPT   NOT AVBL
LORAIN-ELYRIA  MOCLDY    56  46  69 SW6       30.06F
ASHTABULA      CLOUDY    59  51  75 SW3       30.06F
AKRON-CANTON   PTCLDY    61  45  55 W5        30.07F
WOOSTER        PTCLDY    57  49  74 W6        30.08F
MANSFIELD      CLEAR     57  46  66 SW5       30.08F
YOUNGSTOWN     PTCLDY    54  47  77 CALM      30.07S
$$

OHZ042-051>053-060>062-070>072-077>081-260700-
  SOUTHWEST OHIO

CITY           SKY/WX    TMP DP  RH WIND       PRES   REMARKS
CINC-COVINGTON PTCLDY    61  51  70 SW6       30.14R
CINC-LUNKEN    CLOUDY    58  56  93 CALM      30.14R
HAMILTON       MOCLDY    56  55  97 CALM      30.13S
DAYTON         PTCLDY    56  50  80 W6        30.12F
WRIGHT-PAT AFB PTCLDY    55  54  96 CALM      30.11S
DAYTON GENERAL MOCLDY    61  51  70 CALM      30.11F
WILMINGTON     MOCLDY    56  52  86 CALM      30.12F
$$

OHZ036-037-039>041-045>050-054>059-063>069-073>076-082>088-260700-
  CENTRAL AND SOUTHEAST OHIO

CITY           SKY/WX    TMP DP  RH WIND       PRES   REMARKS
COLUMBUS       PTCLDY    62  49  62 SW3       30.10S
OSU AIRPORT    CLEAR     53  49  86 SW5       30.10F
BOLTON FIELD   NOT AVBL
RICKENBACK AFB CLEAR     58  53  86 CALM      30.10F
NEWARK         CLEAR     52  49  89 CALM      30.10S
MARION         CLEAR     57  46  66 SW7       30.09F
LANCASTER      MOCLDY    57  54  89 CALM      30.11S
ZANESVILLE     CLEAR     54  50  86 CALM      30.10F
NEW PHILLY     NOT AVBL
$$




USA.gov is the U.S. government's official web portal to all federal, state and local government web resources and services.